BEIDOU-3 IGSO-2

Last updated on Oct. 23, 2020, 5:56 a.m. UTC

1 44337U 19035A   20296.61993968 -.00000118  00000-0  00000+0 0  9999
2 44337  55.0723 177.1484 0014185 180.4276   2.3491  1.00253062  5007
UTC
Height (km)
Latitude
Longitude
Inclination
Orbital Period
UTC large
Height (km)
Speed (km/s)
/
Latitude / Longitude
Inclination (degrees)
Orbital Period (minutes)
Azimuth
Elevation
Range (km)
Doppler Factor
iOS Compass Heading
iOS Angle

Next 30 passes for location: Hong Kong

Rise time Rise Azimuth (degrees) Set time Set Azimuth (degrees) Duration Max altitude (degrees)

No matching passes for this satellites